Total_Precipitation_Accumulation
0.18 0.21 0.52 0.65 0.67 0.75 0.76 0.75 0.75 0.74 0.74 0.80 0.83 0.83 0.83 0.79 0.76 0.75 0.76 0.69 0.71 0.77 0.88 0.96 0.98 0.98 0.93 0.83 0.69 0.62 0.59 0.58 0.55 0.56 0.63 0.69 0.68 0.62 0.56 0.53 0.55 0.56 0.73
0.16 0.19 0.44 0.53 0.62 0.69 0.70 0.74 0.70 0.63 0.68 0.74 0.76 0.77 0.81 0.81 0.77 0.80 0.81 0.77 0.79 0.87 0.92 0.97 0.93 0.90 0.83 0.82 0.74 0.61 0.57 0.52 0.45 0.40 0.40 0.45 0.57 0.60 0.58 0.54 0.53 0.62 0.68
0.11 0.16 0.35 0.50 0.58 0.67 0.69 0.67 0.63 0.59 0.64 0.68 0.72 0.77 0.85 0.87 0.84 0.85 0.80 0.79 0.85 0.94 0.95 0.95 0.91 0.85 0.77 0.76 0.79 0.68 0.59 0.49 0.40 0.35 0.31 0.33 0.51 0.65 0.61 0.58 0.57 0.68 0.70
0.09 0.14 0.26 0.46 0.55 0.65 0.69 0.69 0.66 0.63 0.65 0.71 0.73 0.78 0.84 0.87 0.92 0.89 0.80 0.81 0.89 0.97 0.99 0.97 0.91 0.86 0.79 0.73 0.72 0.67 0.68 0.56 0.40 0.31 0.26 0.31 0.50 0.74 0.72 0.69 0.66 0.71 0.73
0.12 0.15 0.28 0.48 0.58 0.66 0.70 0.70 0.68 0.68 0.71 0.74 0.75 0.80 0.90 0.90 0.93 0.87 0.79 0.77 0.83 0.95 1.03 0.99 0.86 0.80 0.78 0.74 0.67 0.67 0.69 0.60 0.43 0.29 0.24 0.29 0.45 0.78 0.76 0.75 0.73 0.73 0.72
0.16 0.20 0.35 0.53 0.63 0.69 0.73 0.74 0.73 0.74 0.76 0.82 0.84 0.88 0.95 0.94 0.97 0.92 0.84 0.77 0.75 0.81 0.91 0.92 0.83 0.80 0.77 0.69 0.61 0.66 0.74 0.66 0.38 0.28 0.30 0.33 0.42 0.78 0.87 0.85 0.80 0.78 0.77
0.18 0.26 0.40 0.64 0.75 0.76 0.79 0.79 0.81 0.82 0.86 0.91 0.95 0.98 1.00 0.97 0.97 0.95 0.89 0.82 0.75 0.73 0.79 0.86 0.85 0.82 0.79 0.69 0.63 0.70 0.78 0.63 0.34 0.34 0.36 0.37 0.47 0.88 1.15 1.07 0.89 0.82 0.79
0.22 0.33 0.47 0.76 0.88 0.91 0.89 0.91 0.91 0.93 0.99 1.04 1.05 1.07 1.07 0.99 0.94 0.92 0.92 0.84 0.76 0.69 0.68 0.72 0.77 0.77 0.75 0.69 0.67 0.67 0.67 0.47 0.30 0.31 0.34 0.35 0.52 1.00 1.25 1.19 1.02 0.90 0.83
0.34 0.44 0.55 0.75 0.92 1.06 1.05 1.00 1.03 1.06 1.08 1.15 1.16 1.13 1.08 1.00 0.96 0.95 0.92 0.84 0.77 0.73 0.69 0.66 0.66 0.66 0.63 0.62 0.63 0.60 0.50 0.34 0.26 0.33 0.32 0.36 0.53 1.04 1.27 1.27 1.16 1.02 0.89
0.49 0.63 0.69 0.81 0.94 1.05 1.12 1.12 1.11 1.14 1.18 1.22 1.23 1.17 1.08 1.05 1.03 0.99 0.90 0.85 0.84 0.82 0.76 0.70 0.65 0.62 0.57 0.53 0.49 0.43 0.34 0.27 0.20 0.29 0.39 0.40 0.49 0.95 1.23 1.23 1.17 1.12 0.98
0.61 0.75 0.85 0.93 1.02 1.12 1.19 1.17 1.30 1.38 1.42 1.42 1.34 1.28 1.24 1.18 1.12 0.99 0.85 0.83 0.90 0.89 0.79 0.73 0.69 0.64 0.60 0.50 0.41 0.32 0.27 0.20 0.20 0.31 0.38 0.43 0.62 1.08 1.34 1.30 1.26 1.18 1.06
0.64 0.73 0.86 0.97 1.05 1.19 1.28 1.38 1.50 1.57 1.58 1.53 1.31 1.25 1.25 1.14 1.06 0.95 0.87 0.86 0.89 0.89 0.84 0.79 0.76 0.75 0.70 0.54 0.49 0.41 0.28 0.20 0.20 0.22 0.28 0.36 0.65 1.15 1.43 1.41 1.42 1.33 1.20
0.60 0.71 0.83 1.01 1.17 1.27 1.33 1.46 1.53 1.57 1.58 1.56 1.45 1.32 1.25 1.25 1.17 1.10 1.00 1.00 1.01 0.95 0.93 0.91 0.92 0.84 0.73 0.64 0.61 0.52 0.36 0.30 0.26 0.21 0.22 0.29 0.48 0.88 1.28 1.44 1.48 1.51 1.48
0.62 0.74 0.89 1.09 1.25 1.33 1.35 1.46 1.51 1.46 1.41 1.38 1.35 1.38 1.37 1.34 1.23 1.13 1.08 1.06 1.08 1.02 0.96 0.93 0.90 0.83 0.73 0.65 0.61 0.56 0.50 0.47 0.36 0.29 0.22 0.25 0.33 0.52 0.85 1.18 1.43 1.57 1.68
0.67 0.79 1.00 1.20 1.32 1.43 1.47 1.52 1.53 1.44 1.35 1.37 1.34 1.36 1.34 1.23 1.14 1.02 0.96 0.98 0.91 0.86 0.83 0.83 0.83 0.80 0.71 0.66 0.62 0.54 0.51 0.51 0.45 0.39 0.32 0.32 0.32 0.39 0.55 0.86 1.20 1.51 1.72
0.76 0.88 1.09 1.29 1.44 1.57 1.53 1.55 1.53 1.49 1.47 1.54 1.48 1.31 1.29 1.23 1.14 1.07 0.97 0.92 0.86 0.77 0.72 0.71 0.69 0.72 0.70 0.63 0.58 0.50 0.46 0.47 0.46 0.42 0.41 0.42 0.37 0.36 0.45 0.67 0.94 1.25 1.60
0.86 1.01 1.15 1.32 1.55 1.70 1.66 1.64 1.62 1.60 1.57 1.56 1.60 1.56 1.39 1.28 1.22 1.18 1.07 0.95 0.90 0.85 0.82 0.78 0.76 0.75 0.70 0.64 0.60 0.54 0.46 0.42 0.43 0.44 0.45 0.45 0.45 0.43 0.47 0.62 0.78 1.01 1.42
1.01 1.16 1.27 1.44 1.63 1.76 1.81 1.81 1.74 1.70 1.73 1.65 1.64 1.71 1.70 1.50 1.33 1.25 1.19 1.08 1.03 1.02 0.99 0.93 0.85 0.81 0.75 0.66 0.60 0.56 0.51 0.45 0.40 0.42 0.46 0.46 0.45 0.45 0.49 0.55 0.69 0.91 1.21
1.05 1.23 1.36 1.50 1.69 1.86 1.96 1.96 1.94 1.83 1.81 1.80 1.77 1.74 1.79 1.81 1.60 1.39 1.28 1.24 1.25 1.24 1.16 1.05 0.97 0.87 0.81 0.73 0.67 0.62 0.54 0.49 0.45 0.43 0.44 0.46 0.48 0.47 0.48 0.51 0.57 0.70 0.93
0.99 1.21 1.42 1.58 1.75 1.95 2.13 2.16 2.16 2.07 1.90 1.85 1.85 1.76 1.71 1.77 1.79 1.65 1.48 1.40 1.40 1.40 1.33 1.20 1.08 0.99 0.91 0.88 0.85 0.77 0.64 0.55 0.51 0.48 0.45 0.46 0.49 0.48 0.48 0.51 0.55 0.56 0.65
0.96 1.12 1.34 1.50 1.67 1.90 2.06 2.13 2.11 2.06 1.92 1.85 1.80 1.75 1.73 1.75 1.79 1.78 1.59 1.51 1.40 1.34 1.30 1.25 1.19 1.16 1.08 1.06 1.13 1.06 0.90 0.73 0.63 0.57 0.53 0.52 0.52 0.55 0.61 0.65 0.70 0.66 0.63
0.89 0.98 1.20 1.42 1.57 1.77 1.93 1.96 2.06 2.04 1.97 1.87 1.81 1.77 1.71 1.70 1.79 1.87 1.77 1.66 1.58 1.49 1.44 1.42 1.38 1.32 1.24 1.13 1.19 1.28 1.18 1.05 0.82 0.63 0.58 0.55 0.58 0.64 0.74 0.78 0.82 0.82 0.78
0.85 0.94 1.09 1.31 1.49 1.62 1.87 2.14 2.34 2.41 2.25 2.11 1.94 1.80 1.70 1.67 1.69 1.81 1.89 1.82 1.77 1.72 1.63 1.50 1.46 1.42 1.40 1.26 1.13 1.39 1.43 1.12 0.80 0.64 0.56 0.52 0.53 0.54 0.57 0.63 0.68 0.73 0.82
0.82 0.97 1.11 1.20 1.40 1.61 1.76 2.04 2.30 2.42 2.26 1.95 1.85 1.82 1.78 1.72 1.71 1.72 1.79 1.82 1.79 1.74 1.67 1.55 1.46 1.39 1.43 1.45 1.25 1.10 1.09 1.04 1.04 0.83 0.61 0.52 0.51 0.52 0.50 0.49 0.52 0.57 0.69
0.82 0.98 1.13 1.22 1.37 1.62 1.80 1.91 2.20 2.38 2.28 2.11 1.99 1.89 1.80 1.78 1.76 1.70 1.71 1.76 1.79 1.75 1.71 1.64 1.57 1.57 1.54 1.51 1.42 1.23 1.06 0.92 0.90 1.00 0.81 0.63 0.59 0.57 0.54 0.52 0.52 0.52 0.55
0.79 0.91 1.11 1.25 1.31 1.55 1.78 1.93 2.07 2.31 2.42 2.32 2.18 2.07 1.92 1.86 1.80 1.74 1.64 1.67 1.75 1.78 1.76 1.76 1.71 1.68 1.67 1.59 1.47 1.37 1.37 1.35 1.13 1.05 0.94 0.72 0.65 0.60 0.59 0.59 0.58 0.57 0.56